| time (UTC) | temp F | wind direction | speed MPH | gust MPH | rain 1hr in | rain 24hr in | rain mn in | humidity % | barometer mb |
| 20260507195512 | 66 | 248 | 6.0 | 19.0 | 0.00 | 0.23 | 0.03 | 35 | 1003.0 |
| 20260507195237 | 65 | 272 | 8.0 | 19.0 | 0.00 | 0.24 | 0.03 | 33 | 1003.1 |
| 20260507194500 | 65 | 344 | 7.0 | 15.0 | 0.00 | 0.24 | 0.03 | 33 | 1003.1 |
| 20260507193955 | 65 | 259 | 5.0 | 12.0 | 0.00 | 0.24 | 0.03 | 34 | 1003.0 |
| 20260507193449 | 65 | 326 | 5.0 | 15.0 | 0.00 | 0.24 | 0.03 | 33 | 1002.9 |
| 20260507192942 | 65 | 219 | 6.0 | 15.0 | 0.00 | 0.24 | 0.03 | 32 | 1003.0 |
| 20260507192436 | 65 | 307 | 5.0 | 12.0 | 0.00 | 0.24 | 0.03 | 31 | 1003.2 |
| 20260507191930 | 66 | 286 | 5.0 | 13.0 | 0.00 | 0.24 | 0.03 | 30 | 1003.2 |
| 20260507191424 | 65 | 279 | 5.0 | 13.0 | 0.00 | 0.24 | 0.03 | 32 | 1003.1 |
| 20260507190918 | 65 | 295 | 6.0 | 13.0 | 0.00 | 0.24 | 0.03 | 32 | 1003.2 |
| 20260507190412 | 65 | 300 | 7.0 | 16.0 | 0.00 | 0.24 | 0.03 | 31 | 1003.2 |
| 20260507185906 | 65 | 323 | 7.0 | 16.0 | 0.00 | 0.24 | 0.03 | 33 | 1003.2 |
| 20260507185400 | 65 | 259 | 5.0 | 15.0 | 0.00 | 0.24 | 0.03 | 39 | 1003.3 |
| 20260507184854 | 65 | 266 | 5.0 | 12.0 | 0.00 | 0.24 | 0.03 | 40 | 1003.2 |
| 20260507184609 | 64 | 282 | 4.0 | 12.0 | 0.00 | 0.24 | 0.03 | 42 | 1003.4 |
| 20260507183843 | 64 | 328 | 5.0 | 12.0 | 0.00 | 0.24 | 0.03 | 42 | 1003.4 |
| 20260507183336 | 65 | 311 | 6.0 | 16.0 | 0.00 | 0.24 | 0.03 | 43 | 1003.4 |
| 20260507183317 | 64 | 297 | 6.0 | 16.0 | 0.00 | 0.24 | 0.03 | 42 | 1003.5 |
| 20260507182324 | 64 | 216 | 6.0 | 18.0 | 0.00 | 0.24 | 0.03 | 43 | 1003.5 |
| 20260507181818 | 63 | 301 | 6.0 | 18.0 | 0.00 | 0.24 | 0.03 | 42 | 1003.5 |
| 20260507181313 | 64 | 305 | 5.0 | 13.0 | 0.00 | 0.24 | 0.03 | 40 | 1003.5 |
| 20260507180806 | 64 | 257 | 5.0 | 12.0 | 0.00 | 0.24 | 0.03 | 43 | 1003.5 |
| 20260507180302 | 64 | 300 | 7.0 | 14.0 | 0.00 | 0.24 | 0.03 | 42 | 1003.5 |
| 20260507175754 | 64 | 227 | 7.0 | 14.0 | 0.00 | 0.24 | 0.03 | 42 | 1003.6 |
| 20260507175508 | 64 | 278 | 5.0 | 12.0 | 0.00 | 0.24 | 0.03 | 44 | 1003.6 |
| 20260507174742 | 63 | 292 | 6.0 | 15.0 | 0.00 | 0.24 | 0.03 | 46 | 1003.7 |
| 20260507174238 | 63 | 240 | 7.0 | 15.0 | 0.00 | 0.24 | 0.03 | 45 | 1003.7 |
| 20260507173731 | 63 | 216 | 8.0 | 18.0 | 0.00 | 0.24 | 0.03 | 45 | 1003.7 |
| 20260507173224 | 63 | 211 | 7.0 | 18.0 | 0.00 | 0.24 | 0.03 | 45 | 1003.7 |
| 20260507172719 | 63 | 232 | 6.0 | 15.0 | 0.00 | 0.24 | 0.03 | 46 | 1003.8 |
| 20260507172213 | 62 | 272 | 6.0 | 15.0 | 0.00 | 0.24 | 0.03 | 50 | 1003.8 |
| 20260507171706 | 62 | 269 | 6.0 | 14.0 | 0.00 | 0.24 | 0.03 | 50 | 1003.9 |
| 20260507171200 | 62 | 241 | 8.0 | 17.0 | 0.00 | 0.24 | 0.03 | 50 | 1003.8 |
| 20260507170654 | 62 | 282 | 7.0 | 17.0 | 0.00 | 0.24 | 0.03 | 51 | 1004.0 |
| 20260507170148 | 60 | 296 | 5.0 | 10.0 | 0.00 | 0.24 | 0.03 | 59 | 1003.9 |
| 20260507165642 | 59 | 198 | 4.0 | 12.0 | 0.00 | 0.24 | 0.03 | 68 | 1004.1 |
| 20260507165136 | 58 | 223 | 4.0 | 12.0 | 0.00 | 0.24 | 0.03 | 68 | 1004.1 |
| 20260507164846 | 58 | 178 | 3.0 | 9.0 | 0.00 | 0.24 | 0.03 | 72 | 1004.2 |
| 20260507164124 | 57 | 186 | 3.0 | 11.0 | 0.00 | 0.24 | 0.03 | 73 | 1004.3 |
| 20260507163620 | 56 | 161 | 4.0 | 11.0 | 0.00 | 0.24 | 0.03 | 75 | 1004.4 |
| 20260507163118 | 55 | 184 | 5.0 | 14.0 | 0.00 | 0.24 | 0.03 | 74 | 1004.4 |
| 20260507162835 | 55 | 190 | 5.0 | 14.0 | 0.00 | 0.24 | 0.03 | 72 | 1004.5 |
| 20260507162117 | 55 | 215 | 5.0 | 13.0 | 0.00 | 0.24 | 0.03 | 74 | 1004.5 |
| 20260507161618 | 54 | 181 | 6.0 | 13.0 | 0.00 | 0.24 | 0.03 | 75 | 1004.5 |
| 20260507161334 | 54 | 180 | 5.0 | 11.0 | 0.00 | 0.24 | 0.03 | 74 | 1004.7 |
| 20260507160617 | 54 | 209 | 4.0 | 11.0 | 0.00 | 0.24 | 0.03 | 74 | 1004.8 |
| 20260507160116 | 54 | 172 | 5.0 | 16.0 | 0.00 | 0.24 | 0.03 | 74 | 1004.9 |
| 20260507155617 | 55 | 209 | 6.0 | 16.0 | 0.00 | 0.24 | 0.03 | 73 | 1004.9 |
| 20260507155338 | 55 | 152 | 6.0 | 13.0 | 0.00 | 0.24 | 0.03 | 72 | 1005.1 |
| 20260507154618 | 56 | 168 | 5.0 | 13.0 | 0.00 | 0.24 | 0.03 | 71 | 1005.0 |
| 20260507154118 | 56 | 169 | 5.0 | 12.0 | 0.00 | 0.24 | 0.03 | 72 | 1004.9 |
| 20260507153615 | 56 | 168 | 6.0 | 16.0 | 0.00 | 0.24 | 0.03 | 73 | 1005.0 |
| 20260507153341 | 56 | 179 | 7.0 | 16.0 | 0.00 | 0.24 | 0.03 | 74 | 1005.1 |
| 20260507152836 | 56 | 184 | 7.0 | 15.0 | 0.00 | 0.24 | 0.03 | 76 | 1005.2 |
| 20260507152114 | 56 | 157 | 6.0 | 15.0 | 0.00 | 0.24 | 0.03 | 75 | 1005.2 |
| 20260507151615 | 56 | 154 | 5.0 | 12.0 | 0.00 | 0.24 | 0.03 | 77 | 1005.1 |
| 20260507151115 | 56 | 155 | 4.0 | 10.0 | 0.00 | 0.24 | 0.03 | 77 | 1005.2 |
| 20260507150609 | 57 | 175 | 4.0 | 10.0 | 0.00 | 0.24 | 0.03 | 75 | 1005.2 |
| 20260507145557 | 57 | 153 | 5.0 | 11.0 | 0.00 | 0.24 | 0.03 | 76 | 1005.2 |
| 20260507145051 | 58 | 149 | 5.0 | 10.0 | 0.00 | 0.24 | 0.03 | 75 | 1005.1 |
| 20260507144546 | 57 | 188 | 4.0 | 10.0 | 0.00 | 0.24 | 0.03 | 75 | 1005.1 |
| 20260507144039 | 57 | 209 | 4.0 | 9.0 | 0.00 | 0.24 | 0.03 | 77 | 1005.0 |
| 20260507143532 | 57 | 148 | 4.0 | 8.0 | 0.00 | 0.24 | 0.03 | 78 | 1005.1 |
| 20260507143026 | 57 | 191 | 3.0 | 7.0 | 0.00 | 0.24 | 0.03 | 77 | 1005.2 |
| 20260507142520 | 56 | 194 | 3.0 | 7.0 | 0.00 | 0.24 | 0.03 | 78 | 1005.2 |
| 20260507142015 | 56 | 161 | 3.0 | 8.0 | 0.00 | 0.24 | 0.03 | 78 | 1005.3 |
| 20260507141509 | 56 | 141 | 3.0 | 8.0 | 0.00 | 0.24 | 0.03 | 77 | 1005.4 |
| 20260507141002 | 56 | 185 | 3.0 | 8.0 | 0.00 | 0.24 | 0.03 | 78 | 1005.4 |
| 20260507140940 | 56 | 193 | 3.0 | 8.0 | 0.00 | 0.24 | 0.03 | 79 | 1005.6 |
| 20260507135951 | 56 | 180 | 4.0 | 9.0 | 0.00 | 0.24 | 0.03 | 78 | 1005.5 |
| 20260507135710 | 56 | 192 | 4.0 | 9.0 | 0.00 | 0.24 | 0.03 | 78 | 1005.5 |
| 20260507134949 | 56 | 217 | 4.0 | 9.0 | 0.00 | 0.24 | 0.03 | 77 | 1005.6 |
| 20260507134449 | 56 | 189 | 4.0 | 9.0 | 0.00 | 0.24 | 0.03 | 79 | 1005.6 |
| 20260507133948 | 56 | 186 | 2.0 | 7.0 | 0.00 | 0.24 | 0.03 | 78 | 1005.5 |
| 20260507133447 | 57 | 192 | 1.0 | 6.0 | 0.00 | 0.24 | 0.03 | 77 | 1005.5 |
| 20260507132947 | 56 | 271 | 1.0 | 7.0 | 0.00 | 0.24 | 0.03 | 74 | 1005.7 |
| 20260507132446 | 56 | 229 | 2.0 | 9.0 | 0.00 | 0.24 | 0.03 | 73 | 1005.7 |
| 20260507131947 | 56 | 249 | 2.0 | 9.0 | 0.00 | 0.24 | 0.03 | 74 | 1005.7 |
| 20260507131447 | 55 | 255 | 0.0 | 4.0 | 0.00 | 0.24 | 0.03 | 75 | 1005.7 |
| 20260507130944 | 55 | 271 | 1.0 | 6.0 | 0.00 | 0.24 | 0.03 | 76 | 1005.7 |
| 20260507130708 | 55 | 268 | 2.0 | 6.0 | 0.00 | 0.24 | 0.03 | 77 | 1005.8 |
| 20260507125944 | 54 | 285 | 1.0 | 7.0 | 0.00 | 0.24 | 0.03 | 77 | 1005.7 |
| 20260507125444 | 54 | 265 | 2.0 | 7.0 | 0.00 | 0.24 | 0.03 | 78 | 1005.8 |
| 20260507124944 | 54 | 279 | 3.0 | 9.0 | 0.00 | 0.24 | 0.03 | 78 | 1005.8 |
| 20260507124445 | 54 | 275 | 2.0 | 9.0 | 0.00 | 0.24 | 0.03 | 79 | 1005.9 |
| 20260507123944 | 53 | 275 | 1.0 | 7.0 | 0.00 | 0.24 | 0.03 | 80 | 1005.9 |
| 20260507123446 | 53 | 275 | 2.0 | 7.0 | 0.00 | 0.24 | 0.03 | 79 | 1005.9 |
| 20260507122939 | 53 | 318 | 2.0 | 8.0 | 0.00 | 0.24 | 0.03 | 79 | 1006.0 |
| 20260507122438 | 52 | 322 | 2.0 | 8.0 | 0.00 | 0.24 | 0.03 | 80 | 1005.9 |
| 20260507121939 | 52 | 257 | 2.0 | 8.0 | 0.00 | 0.24 | 0.03 | 81 | 1005.9 |
| 20260507121440 | 51 | 331 | 2.0 | 8.0 | 0.00 | 0.24 | 0.03 | 81 | 1005.8 |
| 20260507121421 | 51 | 319 | 2.0 | 9.0 | 0.00 | 0.24 | 0.03 | 82 | 1005.9 |
| 20260507120703 | 50 | 337 | 1.0 | 9.0 | 0.00 | 0.24 | 0.03 | 84 | 1005.9 |
| 20260507115938 | 50 | 325 | 0.0 | 4.0 | 0.00 | 0.24 | 0.03 | 86 | 1005.9 |
| 20260507115438 | 50 | 331 | 0.0 | 3.0 | 0.00 | 0.24 | 0.03 | 87 | 1006.0 |
| 20260507114939 | 50 | 340 | 0.0 | 3.0 | 0.00 | 0.24 | 0.03 | 87 | 1006.0 |
| 20260507114700 | 50 | 340 | 0.0 | 4.0 | 0.00 | 0.24 | 0.03 | 88 | 1005.9 |
| 20260507113936 | 50 | 342 | 0.0 | 4.0 | 0.00 | 0.24 | 0.03 | 88 | 1005.8 |
| 20260507113655 | 49 | 340 | 0.0 | 4.0 | 0.00 | 0.24 | 0.03 | 88 | 1005.8 |
| 20260507112937 | 49 | 340 | 0.0 | 3.0 | 0.00 | 0.24 | 0.03 | 88 | 1005.8 |
| 20260507112656 | 49 | 340 | 0.0 | 3.0 | 0.00 | 0.24 | 0.03 | 89 | 1005.8 |
| 20260507112200 | 49 | 340 | 0.0 | 2.0 | 0.00 | 0.24 | 0.03 | 89 | 1005.9 |
| 20260507111434 | 49 | 340 | 0.0 | 0.0 | 0.00 | 0.24 | 0.03 | 89 | 1006.0 |
| 20260507110936 | 48 | 340 | 0.0 | 0.0 | 0.00 | 0.24 | 0.03 | 89 | 1005.9 |
| 20260507110434 | 48 | 340 | 0.0 | 0.0 | 0.00 | 0.24 | 0.03 | 89 | 1005.9 |
| 20260507105934 | 48 | 340 | 0.0 | 3.0 | 0.00 | 0.24 | 0.03 | 89 | 1006.1 |
| 20260507105430 | 48 | 340 | 0.0 | 4.0 | 0.00 | 0.24 | 0.03 | 90 | 1006.1 |
| 20260507105157 | 48 | 341 | 0.0 | 4.0 | 0.00 | 0.24 | 0.03 | 90 | 1005.7 |
| 20260507104431 | 48 | 345 | 0.0 | 2.0 | 0.00 | 0.24 | 0.03 | 90 | 1005.8 |
| 20260507104154 | 48 | 344 | 0.0 | 0.0 | 0.00 | 0.24 | 0.03 | 90 | 1006.0 |
| 20260507103430 | 48 | 344 | 0.0 | 0.0 | 0.00 | 0.24 | 0.03 | 90 | 1006.5 |
| 20260507102930 | 48 | 344 | 0.0 | 0.0 | 0.00 | 0.24 | 0.03 | 90 | 1006.3 |
| 20260507102430 | 48 | 344 | 0.0 | 1.0 | 0.00 | 0.24 | 0.03 | 90 | 1006.1 |
| 20260507101930 | 48 | 344 | 0.0 | 3.0 | 0.00 | 0.24 | 0.03 | 90 | 1006.2 |
| 20260507101430 | 48 | 344 | 0.0 | 4.0 | 0.00 | 0.24 | 0.03 | 90 | 1006.2 |
| 20260507100926 | 48 | 344 | 0.0 | 4.0 | 0.00 | 0.24 | 0.03 | 90 | 1005.8 |
| 20260507100426 | 48 | 344 | 0.0 | 3.0 | 0.00 | 0.24 | 0.03 | 90 | 1005.8 |
| 20260507095926 | 48 | 344 | 0.0 | 0.0 | 0.00 | 0.24 | 0.03 | 90 | 1006.0 |
| 20260507095427 | 48 | 344 | 0.0 | 0.0 | 0.00 | 0.24 | 0.03 | 90 | 1005.9 |
| 20260507094926 | 48 | 344 | 0.0 | 1.0 | 0.00 | 0.24 | 0.03 | 91 | 1006.1 |
| 20260507094427 | 48 | 344 | 0.0 | 3.0 | 0.00 | 0.24 | 0.03 | 91 | 1005.8 |
| 20260507093926 | 49 | 344 | 0.0 | 3.0 | 0.00 | 0.24 | 0.03 | 91 | 1005.2 |
| 20260507093648 | 49 | 344 | 1.0 | 3.0 | 0.00 | 0.24 | 0.03 | 91 | 1005.4 |
| 20260507092927 | 49 | 345 | 0.0 | 3.0 | 0.00 | 0.24 | 0.03 | 91 | 1005.7 |
| 20260507092422 | 49 | 345 | 0.0 | 4.0 | 0.00 | 0.24 | 0.03 | 91 | 1005.6 |
| 20260507091922 | 49 | 345 | 1.0 | 5.0 | 0.00 | 0.24 | 0.03 | 91 | 1005.4 |
| 20260507091422 | 49 | 345 | 1.0 | 5.0 | 0.00 | 0.24 | 0.03 | 91 | 1005.1 |
| 20260507091409 | 49 | 344 | 1.0 | 5.0 | 0.00 | 0.24 | 0.03 | 91 | 1005.1 |
| 20260507090424 | 49 | 344 | 1.0 | 5.0 | 0.00 | 0.24 | 0.03 | 91 | 1005.5 |
| 20260507085923 | 49 | 328 | 1.0 | 8.0 | 0.00 | 0.24 | 0.03 | 91 | 1005.3 |
| 20260507085422 | 49 | 325 | 1.0 | 9.0 | 0.00 | 0.24 | 0.03 | 91 | 1005.4 |
| 20260507084922 | 49 | 335 | 1.0 | 9.0 | 0.00 | 0.24 | 0.03 | 92 | 1005.3 |
| 20260507084422 | 49 | 346 | 2.0 | 9.0 | 0.00 | 0.24 | 0.03 | 92 | 1005.4 |
| 20260507083924 | 49 | 347 | 2.0 | 9.0 | 0.00 | 0.24 | 0.03 | 92 | 1005.6 |
| 20260507083424 | 49 | 331 | 2.0 | 8.0 | 0.00 | 0.24 | 0.03 | 93 | 1005.8 |
| 20260507082922 | 49 | 309 | 1.0 | 7.0 | 0.00 | 0.24 | 0.03 | 93 | 1005.7 |
| 20260507082422 | 50 | 328 | 1.0 | 5.0 | 0.00 | 0.24 | 0.03 | 94 | 1005.5 |
| 20260507081922 | 50 | 336 | 1.0 | 4.0 | 0.00 | 0.24 | 0.03 | 94 | 1005.2 |
| 20260507081423 | 50 | 338 | 0.0 | 4.0 | 0.00 | 0.24 | 0.03 | 94 | 1005.2 |
| 20260507080922 | 50 | 338 | 0.0 | 5.0 | 0.00 | 0.24 | 0.03 | 94 | 1005.0 |
| 20260507080422 | 50 | 338 | 1.0 | 5.0 | 0.00 | 0.24 | 0.03 | 94 | 1004.8 |
| 20260507075922 | 50 | 345 | 1.0 | 5.0 | 0.00 | 0.24 | 0.03 | 95 | 1004.8 |
| 20260507075417 | 50 | 339 | 0.0 | 3.0 | 0.00 | 0.24 | 0.03 | 95 | 1004.9 |
| 20260507074911 | 50 | 339 | 0.0 | 2.0 | 0.00 | 0.24 | 0.03 | 95 | 1004.9 |
| 20260507074404 | 50 | 339 | 0.0 | 0.0 | 0.00 | 0.24 | 0.03 | 95 | 1005.4 |
| 20260507074128 | 50 | 339 | 0.0 | 2.0 | 0.00 | 0.24 | 0.03 | 95 | 1005.3 |
| 20260507073353 | 50 | 339 | 0.0 | 4.0 | 0.00 | 0.24 | 0.03 | 95 | 1005.0 |
| 20260507072846 | 51 | 339 | 0.0 | 4.0 | 0.00 | 0.24 | 0.03 | 95 | 1005.0 |
| 20260507072604 | 51 | 339 | 0.0 | 1.0 | 0.00 | 0.24 | 0.03 | 95 | 1004.9 |
| 20260507071834 | 51 | 339 | 0.0 | 1.0 | 0.00 | 0.24 | 0.03 | 95 | 1004.7 |
| 20260507071329 | 51 | 339 | 0.0 | 0.0 | 0.00 | 0.24 | 0.03 | 95 | 1004.5 |
| 20260507070823 | 51 | 339 | 0.0 | 1.0 | 0.00 | 0.24 | 0.03 | 95 | 1004.4 |
| 20260507070317 | 51 | 339 | 0.0 | 1.0 | 0.00 | 0.24 | 0.03 | 95 | 1004.5 |
| 20260507065811 | 51 | 339 | 0.0 | 1.0 | 0.00 | 0.24 | 0.03 | 95 | 1004.5 |
| 20260507065306 | 51 | 339 | 0.0 | 1.0 | 0.00 | 0.24 | 0.03 | 95 | 1004.4 |
| 20260507064804 | 51 | 339 | 0.0 | 0.0 | 0.00 | 0.24 | 0.03 | 95 | 1004.5 |
| 20260507064305 | 51 | 339 | 0.0 | 0.0 | 0.00 | 0.24 | 0.03 | 95 | 1004.4 |
| 20260507063804 | 51 | 339 | 0.0 | 0.0 | 0.00 | 0.24 | 0.03 | 95 | 1004.4 |
| 20260507063302 | 51 | 339 | 0.0 | 0.0 | 0.01 | 0.24 | 0.03 | 95 | 1004.5 |
| 20260507062800 | 51 | 339 | 0.0 | 0.0 | 0.01 | 0.24 | 0.03 | 95 | 1004.4 |
| 20260507062301 | 51 | 339 | 0.0 | 2.0 | 0.01 | 0.24 | 0.03 | 95 | 1004.5 |
| 20260507061758 | 51 | 339 | 0.0 | 2.0 | 0.01 | 0.24 | 0.03 | 95 | 1004.3 |
| 20260507061258 | 51 | 339 | 0.0 | 3.0 | 0.01 | 0.24 | 0.03 | 95 | 1004.2 |
| 20260507061026 | 51 | 339 | 0.0 | 3.0 | 0.01 | 0.24 | 0.03 | 95 | 1004.3 |
| 20260507060256 | 52 | 339 | 0.0 | 3.0 | 0.01 | 0.24 | 0.03 | 95 | 1004.4 |
| 20260507055755 | 52 | 339 | 0.0 | 3.0 | 0.01 | 0.24 | 0.03 | 95 | 1004.4 |
| 20260507055254 | 52 | 340 | 1.0 | 6.0 | 0.01 | 0.24 | 0.03 | 95 | 1004.3 |
| 20260507054755 | 52 | 339 | 2.0 | 8.0 | 0.02 | 0.24 | 0.03 | 95 | 1004.1 |
| 20260507054254 | 52 | 355 | 3.0 | 9.0 | 0.02 | 0.24 | 0.03 | 95 | 1004.1 |
| 20260507053755 | 53 | 327 | 2.0 | 9.0 | 0.02 | 0.24 | 0.03 | 95 | 1004.0 |
| 20260507053254 | 53 | 323 | 2.0 | 9.0 | 0.01 | 0.23 | 0.02 | 96 | 1004.0 |
| 20260507052754 | 53 | 17 | 2.0 | 8.0 | 0.01 | 0.23 | 0.02 | 95 | 1003.9 |
| 20260507052253 | 54 | 5 | 2.0 | 8.0 | 0.02 | 0.23 | 0.02 | 96 | 1004.0 |
| 20260507051748 | 54 | 14 | 1.0 | 4.0 | 0.02 | 0.23 | 0.02 | 96 | 1004.0 |
| 20260507051242 | 54 | 24 | 1.0 | 4.0 | 0.02 | 0.23 | 0.02 | 96 | 1004.2 |
| 20260507051003 | 54 | 235 | 1.0 | 7.0 | 0.02 | 0.23 | 0.02 | 96 | 1003.9 |
| 20260507050230 | 54 | 234 | 1.0 | 7.0 | 0.02 | 0.23 | 0.02 | 96 | 1003.8 |
| 20260507045723 | 54 | 244 | 1.0 | 8.0 | 0.03 | 0.23 | 0.02 | 96 | 1003.8 |
| 20260507045439 | 54 | 281 | 0.0 | 8.0 | 0.03 | 0.23 | 0.02 | 96 | 1003.7 |
| 20260507044710 | 54 | 249 | 0.0 | 3.0 | 0.02 | 0.22 | 0.01 | 96 | 1003.6 |
| 20260507044203 | 54 | 249 | 0.0 | 2.0 | 0.02 | 0.22 | 0.01 | 96 | 1003.3 |
| 20260507043657 | 54 | 249 | 0.0 | 3.0 | 0.02 | 0.22 | 0.01 | 96 | 1003.3 |
| 20260507043153 | 54 | 248 | 0.0 | 3.0 | 0.03 | 0.22 | 0.01 | 96 | 1003.4 |
| 20260507042645 | 53 | 248 | 0.0 | 2.0 | 0.02 | 0.21 | 0.01 | 96 | 1003.1 |
| 20260507042139 | 53 | 248 | 0.0 | 5.0 | 0.02 | 0.21 | 0.00 | 96 | 1003.2 |
| 20260507041633 | 53 | 248 | 0.0 | 5.0 | 0.02 | 0.21 | 0.00 | 97 | 1003.2 |
| 20260507041127 | 53 | 243 | 0.0 | 2.0 | 0.02 | 0.21 | 0.00 | 96 | 1003.2 |
| 20260507040621 | 52 | 243 | 0.0 | 4.0 | 0.02 | 0.21 | 0.00 | 96 | 1003.4 |
| 20260507040337 | 52 | 231 | 1.0 | 5.0 | 0.02 | 0.21 | 0.00 | 96 | 1003.6 |
| 20260507035810 | 51 | 240 | 3.0 | 9.0 | 0.01 | 0.20 | 0.20 | 96 | 1003.5 |
| 20260507035654 | 52 | 214 | 2.0 | 5.0 | 0.01 | 0.20 | 0.20 | 96 | 1003.4 |
| 20260507034557 | 51 | 239 | 3.0 | 8.0 | 0.01 | 0.20 | 0.20 | 96 | 1003.6 |
| 20260507034051 | 51 | 220 | 3.0 | 8.0 | 0.01 | 0.20 | 0.20 | 96 | 1003.3 |
| 20260507033547 | 51 | 258 | 4.0 | 11.0 | 0.01 | 0.20 | 0.20 | 96 | 1003.3 |
| 20260507033039 | 50 | 210 | 5.0 | 12.0 | 0.00 | 0.19 | 0.19 | 96 | 1003.4 |
| 20260507032534 | 50 | 267 | 5.0 | 12.0 | 0.00 | 0.19 | 0.19 | 96 | 1003.4 |
| 20260507032255 | 50 | 285 | 4.0 | 9.0 | 0.00 | 0.19 | 0.19 | 96 | 1003.1 |
| 20260507031740 | 50 | 190 | 5.0 | 11.0 | 0.00 | 0.19 | 0.19 | 96 | 1003.1 |
| 20260507031015 | 50 | 238 | 4.0 | 12.0 | 0.00 | 0.19 | 0.19 | 96 | 1003.1 |
| 20260507030510 | 50 | 205 | 4.0 | 14.0 | 0.00 | 0.19 | 0.19 | 95 | 1003.1 |
| 20260507030004 | 50 | 186 | 4.0 | 14.0 | 0.00 | 0.19 | 0.19 | 96 | 1003.1 |
| 20260507025457 | 50 | 186 | 4.0 | 10.0 | 0.00 | 0.19 | 0.19 | 96 | 1003.1 |
| 20260507024951 | 50 | 233 | 4.0 | 10.0 | 0.00 | 0.19 | 0.19 | 96 | 1003.2 |
| 20260507024445 | 50 | 251 | 4.0 | 10.0 | 0.00 | 0.19 | 0.19 | 96 | 1003.4 |
| 20260507023939 | 50 | 235 | 4.0 | 13.0 | 0.00 | 0.19 | 0.19 | 96 | 1003.3 |
| 20260507023433 | 50 | 228 | 4.0 | 13.0 | 0.00 | 0.19 | 0.19 | 96 | 1003.4 |
| 20260507022927 | 50 | 227 | 4.0 | 12.0 | 0.00 | 0.19 | 0.19 | 96 | 1003.5 |
| 20260507022422 | 50 | 213 | 4.0 | 12.0 | 0.00 | 0.19 | 0.19 | 96 | 1003.6 |
| 20260507021915 | 50 | 169 | 4.0 | 11.0 | 0.00 | 0.19 | 0.19 | 96 | 1003.7 |
| 20260507021410 | 50 | 182 | 5.0 | 12.0 | 0.00 | 0.19 | 0.19 | 96 | 1003.7 |
| 20260507020903 | 50 | 251 | 5.0 | 12.0 | 0.00 | 0.19 | 0.19 | 96 | 1003.7 |
| 20260507020357 | 50 | 194 | 4.0 | 11.0 | 0.00 | 0.19 | 0.19 | 96 | 1003.8 |
| 20260507015851 | 50 | 248 | 4.0 | 11.0 | 0.00 | 0.19 | 0.19 | 95 | 1003.8 |
| 20260507015346 | 50 | 227 | 3.0 | 11.0 | 0.00 | 0.19 | 0.19 | 95 | 1003.8 |
| 20260507014840 | 50 | 194 | 4.0 | 13.0 | 0.00 | 0.19 | 0.19 | 95 | 1003.9 |
| 20260507014334 | 50 | 218 | 4.0 | 13.0 | 0.00 | 0.19 | 0.19 | 95 | 1004.0 |
| 20260507014052 | 50 | 215 | 4.0 | 10.0 | 0.01 | 0.19 | 0.19 | 95 | 1004.1 |
| 20260507013544 | 50 | 235 | 4.0 | 9.0 | 0.01 | 0.19 | 0.19 | 95 | 1004.1 |
| 20260507012816 | 50 | 199 | 5.0 | 11.0 | 0.01 | 0.19 | 0.19 | 95 | 1004.1 |
| 20260507012309 | 50 | 166 | 5.0 | 11.0 | 0.01 | 0.19 | 0.19 | 95 | 1004.2 |
| 20260507011803 | 50 | 225 | 4.0 | 11.0 | 0.01 | 0.19 | 0.19 | 95 | 1004.2 |
| 20260507011258 | 50 | 204 | 4.0 | 14.0 | 0.01 | 0.19 | 0.19 | 95 | 1004.2 |
| 20260507010751 | 50 | 215 | 5.0 | 14.0 | 0.01 | 0.19 | 0.19 | 95 | 1004.3 |
| 20260507010246 | 51 | 186 | 5.0 | 13.0 | 0.01 | 0.19 | 0.19 | 95 | 1004.3 |
| 20260507010001 | 51 | 207 | 4.0 | 12.0 | 0.01 | 0.19 | 0.19 | 95 | 1004.3 |
| 20260507005234 | 51 | 227 | 5.0 | 12.0 | 0.01 | 0.19 | 0.19 | 95 | 1004.3 |
| 20260507004728 | 51 | 208 | 5.0 | 12.0 | 0.01 | 0.19 | 0.19 | 95 | 1004.2 |
| 20260507004221 | 51 | 207 | 5.0 | 12.0 | 0.01 | 0.19 | 0.19 | 95 | 1004.2 |
| 20260507003721 | 51 | 176 | 7.0 | 18.0 | 0.00 | 0.18 | 0.18 | 95 | 1004.2 |
| 20260507003443 | 51 | 225 | 6.0 | 18.0 | 0.00 | 0.18 | 0.18 | 95 | 1004.3 |
| 20260507002719 | 51 | 165 | 4.0 | 18.0 | 0.00 | 0.18 | 0.18 | 95 | 1004.2 |
| 20260507002710 | 51 | 183 | 5.0 | 13.0 | 0.00 | 0.18 | 0.18 | 95 | 1004.2 |
| 20260507001937 | 51 | 227 | 6.0 | 14.0 | 0.00 | 0.18 | 0.18 | 95 | 1004.2 |
| 20260507001219 | 51 | 204 | 6.0 | 16.0 | 0.00 | 0.18 | 0.18 | 95 | 1004.2 |
| 20260507000719 | 51 | 174 | 6.0 | 16.0 | 0.00 | 0.18 | 0.18 | 95 | 1004.3 |
| 20260507000219 | 51 | 213 | 8.0 | 20.0 | 0.00 | 0.18 | 0.18 | 95 | 1004.3 |
| 20260506235721 | 51 | 212 | 7.0 | 20.0 | 0.01 | 0.18 | 0.18 | 95 | 1004.3 |
| 20260506235221 | 51 | 180 | 6.0 | 17.0 | 0.01 | 0.18 | 0.18 | 95 | 1004.3 |
| 20260506234720 | 51 | 166 | 7.0 | 17.0 | 0.01 | 0.18 | 0.18 | 95 | 1004.2 |
| 20260506234439 | 51 | 170 | 7.0 | 18.0 | 0.01 | 0.18 | 0.18 | 95 | 1004.3 |
| 20260506233719 | 51 | 197 | 7.0 | 18.0 | 0.01 | 0.18 | 0.18 | 95 | 1004.3 |
| 20260506233219 | 51 | 142 | 7.0 | 19.0 | 0.01 | 0.18 | 0.18 | 95 | 1004.3 |
| 20260506232719 | 51 | 205 | 8.0 | 19.0 | 0.01 | 0.18 | 0.18 | 95 | 1004.3 |
| 20260506232657 | 51 | 155 | 8.0 | 16.0 | 0.02 | 0.18 | 0.18 | 95 | 1004.3 |
| 20260506231717 | 51 | 175 | 7.0 | 16.0 | 0.02 | 0.18 | 0.18 | 94 | 1004.4 |
| 20260506231439 | 51 | 246 | 7.0 | 18.0 | 0.02 | 0.18 | 0.18 | 94 | 1004.4 |
| 20260506230710 | 51 | 178 | 8.0 | 19.0 | 0.03 | 0.18 | 0.18 | 95 | 1004.5 |
| 20260506230427 | 51 | 234 | 8.0 | 19.0 | 0.03 | 0.18 | 0.18 | 95 | 1004.4 |
| 20260506225935 | 51 | 187 | 8.0 | 20.0 | 0.03 | 0.17 | 0.17 | 94 | 1004.5 |
| 20260506225210 | 51 | 167 | 9.0 | 20.0 | 0.04 | 0.17 | 0.17 | 94 | 1004.6 |
| 20260506224710 | 51 | 213 | 9.0 | 20.0 | 0.05 | 0.17 | 0.17 | 94 | 1004.5 |
| 20260506224209 | 51 | 182 | 8.0 | 18.0 | 0.06 | 0.17 | 0.17 | 94 | 1004.5 |
| 20260506223709 | 51 | 210 | 7.0 | 16.0 | 0.06 | 0.17 | 0.17 | 94 | 1004.6 |
| 20260506223208 | 52 | 192 | 7.0 | 19.0 | 0.07 | 0.17 | 0.17 | 94 | 1004.8 |
| 20260506222708 | 52 | 157 | 8.0 | 19.0 | 0.08 | 0.17 | 0.17 | 94 | 1004.7 |
| 20260506222208 | 52 | 170 | 7.0 | 16.0 | 0.07 | 0.16 | 0.16 | 94 | 1004.7 |
| 20260506221709 | 52 | 190 | 8.0 | 18.0 | 0.08 | 0.16 | 0.16 | 94 | 1004.7 |
| 20260506221209 | 52 | 170 | 9.0 | 18.0 | 0.09 | 0.16 | 0.16 | 94 | 1004.8 |
| 20260506220936 | 52 | 225 | 9.0 | 22.0 | 0.09 | 0.15 | 0.16 | 94 | 1004.9 |
| 20260506220209 | 52 | 166 | 9.0 | 22.0 | 0.10 | 0.15 | 0.15 | 94 | 1004.9 |
| 20260506215707 | 52 | 257 | 9.0 | 19.0 | 0.09 | 0.14 | 0.14 | 94 | 1005.1 |
| 20260506215208 | 52 | 202 | 9.0 | 19.0 | 0.09 | 0.13 | 0.13 | 94 | 1005.1 |
| 20260506214708 | 52 | 178 | 9.0 | 18.0 | 0.08 | 0.12 | 0.12 | 94 | 1005.1 |
| 20260506214208 | 52 | 144 | 8.0 | 22.0 | 0.08 | 0.11 | 0.11 | 93 | 1005.1 |
| 20260506213708 | 52 | 203 | 8.0 | 22.0 | 0.08 | 0.11 | 0.11 | 93 | 1005.1 |
| 20260506213207 | 52 | 172 | 8.0 | 19.0 | 0.08 | 0.10 | 0.10 | 93 | 1005.3 |
| 20260506212707 | 53 | 177 | 7.0 | 18.0 | 0.07 | 0.09 | 0.09 | 93 | 1005.3 |
| 20260506212207 | 53 | 205 | 7.0 | 19.0 | 0.07 | 0.09 | 0.09 | 93 | 1005.3 |
| 20260506211925 | 52 | 142 | 6.0 | 19.0 | 0.06 | 0.08 | 0.08 | 93 | 1005.4 |
| 20260506211207 | 52 | 167 | 6.0 | 17.0 | 0.05 | 0.07 | 0.07 | 93 | 1005.4 |
| 20260506210707 | 52 | 173 | 7.0 | 17.0 | 0.04 | 0.06 | 0.06 | 93 | 1005.4 |
| 20260506210206 | 52 | 239 | 6.0 | 12.0 | 0.04 | 0.05 | 0.05 | 92 | 1005.5 |
| 20260506205703 | 52 | 188 | 5.0 | 12.0 | 0.04 | 0.05 | 0.05 | 92 | 1005.6 |
| 20260506205204 | 52 | 180 | 5.0 | 12.0 | 0.04 | 0.04 | 0.04 | 92 | 1005.6 |
| 20260506204703 | 53 | 194 | 5.0 | 11.0 | 0.04 | 0.04 | 0.04 | 92 | 1005.6 |
| 20260506204205 | 53 | 180 | 4.0 | 10.0 | 0.03 | 0.03 | 0.03 | 92 | 1005.7 |
| 20260506203704 | 53 | 284 | 4.0 | 13.0 | 0.03 | 0.03 | 0.03 | 92 | 1005.7 |
| 20260506203205 | 53 | 213 | 5.0 | 15.0 | 0.02 | 0.02 | 0.02 | 92 | 1005.7 |
| 20260506202703 | 53 | 180 | 6.0 | 15.0 | 0.02 | 0.02 | 0.02 | 92 | 1005.7 |
| 20260506202205 | 53 | 169 | 5.0 | 14.0 | 0.02 | 0.02 | 0.02 | 92 | 1005.6 |
| 20260506201659 | 53 | 187 | 5.0 | 11.0 | 0.02 | 0.02 | 0.02 | 92 | 1005.6 |
| 20260506201202 | 53 | 168 | 5.0 | 12.0 | 0.02 | 0.02 | 0.02 | 91 | 1005.6 |
| 20260506200659 | 53 | 188 | 5.0 | 14.0 | 0.02 | 0.02 | 0.02 | 91 | 1005.7 |
| 20260506200200 | 53 | 169 | 5.0 | 14.0 | 0.01 | 0.01 | 0.01 | 91 | 1005.8 |